Snowfall_Accumulation
0.1 1.6 5.3 1.8 0.8 1.5 1.9 1.9 1.4 0.8 0.2 0.4 0.8 0.5 0.0 0.0 0.0 0.0 0.0 0.0 0.0 0.0 0.0 0.0 0.0 0.0 0.0 0.0 0.0 0.0 0.0 0.0 0.0 0.0 0.0 0.0 0.0 0.0 0.0 0.0 0.0 0.0 0.0 0.0
2.4 4.1 0.9 0.3 0.5 1.7 2.5 2.8 1.9 0.9 0.1 0.8 1.3 0.7 0.1 0.0 0.0 0.0 0.0 0.0 0.0 0.0 0.0 0.0 0.0 0.0 0.0 0.0 0.0 0.0 0.0 0.0 0.0 0.0 0.0 0.0 0.0 0.0 0.0 0.0 0.0 0.0 0.0 0.0
5.1 2.2 0.2 0.7 1.5 2.6 2.7 2.8 1.8 2.0 1.1 0.2 1.2 2.1 0.6 0.2 0.0 0.0 0.0 0.0 0.0 0.0 0.0 0.0 0.0 0.0 0.0 0.0 0.0 0.0 0.0 0.0 0.0 0.0 0.0 0.0 0.0 0.0 0.0 0.0 0.0 0.0 0.0 0.0
1.9 0.5 0.5 1.5 2.1 2.2 3.7 0.7 0.5 1.4 2.5 3.6 2.6 5.6 1.4 0.6 0.6 0.0 0.1 0.3 0.0 0.0 0.0 0.0 0.0 0.0 0.0 0.0 0.0 0.0 0.0 0.0 0.0 0.0 0.0 0.0 0.0 0.0 0.0 0.0 0.0 0.0 0.0 0.0
3.2 0.6 0.7 2.8 1.7 1.2 1.3 0.1 0.5 1.2 3.5 4.8 2.2 4.8 3.0 0.7 1.3 0.9 0.3 0.6 0.5 0.0 0.0 0.0 0.0 0.0 0.0 0.0 0.0 0.0 0.0 0.0 0.0 0.0 0.0 0.0 0.0 0.0 0.0 0.0 0.0 0.0 0.0 0.0
1.5 0.4 0.5 0.7 0.1 0.3 0.4 0.4 0.8 2.1 5.7 10.5 3.9 4.5 3.7 2.9 2.5 1.2 0.3 0.5 0.4 0.1 0.0 0.0 0.0 0.0 0.0 0.0 0.0 0.0 0.0 0.0 0.0 0.0 0.0 0.0 0.0 0.0 0.0 0.0 0.0 0.0 0.0 0.0
7.3 2.8 0.6 0.2 2.0 1.6 1.8 11.1 18.2 18.0 15.7 8.7 1.7 2.9 3.6 1.7 0.3 0.3 0.3 0.5 0.3 0.2 0.2 0.1 0.0 0.2 0.0 0.1 0.0 0.0 0.0 0.0 0.0 0.0 0.0 0.0 0.0 0.0 0.0 0.0 0.0 0.0 0.0 0.0
10.4 11.2 1.5 0.3 1.0 3.1 3.0 7.3 13.4 12.2 8.1 3.9 1.9 3.3 3.4 0.2 0.2 0.0 0.1 0.4 0.3 0.5 0.5 0.4 0.2 0.4 0.0 0.0 0.0 0.0 0.0 0.0 0.0 0.0 0.0 0.0 0.0 0.0 0.0 0.0 0.0 0.0 0.0 0.0
7.8 8.2 0.7 0.2 0.3 1.1 5.6 6.9 3.8 9.0 6.9 4.8 3.1 2.3 1.8 0.0 0.2 0.4 0.2 0.3 0.4 0.4 0.4 0.5 0.7 0.6 0.3 0.3 0.0 0.0 0.0 0.0 0.0 0.0 0.0 0.0 0.0 0.0 0.0 0.0 0.0 0.0 0.0 0.0
4.1 8.0 2.8 0.3 0.5 0.5 1.0 1.3 6.1 11.3 9.5 6.8 3.4 2.6 3.6 2.4 1.6 0.8 0.4 0.4 0.3 0.2 0.3 0.4 0.5 0.7 0.6 0.2 0.4 0.1 0.0 0.0 0.0 0.0 0.0 0.0 0.0 0.0 0.0 0.0 0.0 0.0 0.0 0.0
2.5 7.1 7.1 1.8 4.1 4.3 2.6 3.9 6.8 8.7 7.4 7.7 5.1 3.6 2.5 2.2 1.3 1.2 0.4 0.4 0.6 0.6 0.4 0.4 0.5 0.5 0.4 0.4 0.1 0.1 0.0 0.0 0.0 0.0 0.0 0.0 0.0 0.0 0.0 0.0 0.0 0.0 0.0 0.0
1.6 4.3 8.9 3.7 0.4 0.3 0.7 2.1 4.8 9.6 7.4 5.9 5.5 3.6 0.5 0.3 0.2 0.4 0.4 0.3 0.4 0.4 0.3 0.3 0.3 0.4 0.4 0.2 0.1 0.1 0.1 0.2 0.0 0.0 0.0 0.0 0.0 0.0 0.0 0.0 0.0 0.0 0.0 0.0
2.0 4.5 8.7 4.0 1.5 0.7 1.8 1.2 2.1 4.7 8.5 6.9 6.4 3.8 0.3 0.4 0.2 0.3 0.3 0.3 0.2 0.2 0.3 0.3 0.3 0.3 0.3 0.2 0.1 0.1 0.1 0.2 0.1 0.0 0.0 0.0 0.0 0.0 0.0 0.0 0.0 0.0 0.0 0.0
1.1 3.8 5.6 5.6 3.8 3.4 3.7 2.8 2.5 6.6 10.6 6.0 3.9 3.3 1.5 0.8 0.5 0.5 0.3 0.3 0.2 0.2 0.2 0.2 0.2 0.2 0.2 0.2 0.2 0.1 0.1 0.1 0.2 0.1 0.0 0.0 0.0 0.0 0.0 0.0 0.0 0.0 0.0 0.0
1.2 3.6 2.8 1.7 0.9 1.6 2.1 2.4 2.6 5.0 4.8 5.5 3.0 2.5 1.3 0.8 0.5 0.3 0.2 0.2 0.2 0.2 0.1 0.1 0.2 0.2 0.2 0.2 0.2 0.1 0.1 0.1 0.1 0.1 0.1 0.1 0.1 0.1 0.0 0.0 0.0 0.0 0.0 0.0
0.8 2.1 1.9 2.4 0.6 0.9 2.3 1.7 1.8 2.0 2.3 3.1 2.6 2.1 0.7 0.5 0.3 0.3 0.2 0.1 0.2 0.2 0.2 0.2 0.2 0.2 0.1 0.1 0.2 0.2 0.1 0.1 0.1 0.2 0.2 0.1 0.1 0.1 0.0 0.0 0.0 0.0 0.0 0.0
0.7 1.1 4.2 3.2 1.1 2.4 3.6 1.7 1.6 2.0 1.7 2.1 3.3 2.0 0.8 0.7 0.8 0.8 0.2 0.2 0.2 0.2 0.2 0.1 0.1 0.1 0.1 0.1 0.1 0.1 0.1 0.1 0.1 0.1 0.2 0.1 0.1 0.1 0.1 0.1 0.1 0.1 0.1 0.1
0.6 1.4 3.9 3.5 2.2 3.3 1.4 0.3 0.6 1.1 1.3 0.9 1.2 1.0 0.5 0.6 0.4 0.1 0.1 0.3 0.2 0.2 0.3 0.1 0.1 0.1 0.0 0.1 0.0 0.1 0.0 0.1 0.1 0.2 0.2 0.2 0.3 0.2 0.4 0.4 0.4 0.5 0.4 0.5
0.5 1.1 4.7 4.1 2.8 1.8 0.6 0.3 0.5 1.3 1.9 0.9 0.8 0.5 0.2 0.1 0.1 0.1 0.0 0.2 0.2 0.2 0.1 0.1 0.2 0.1 0.0 0.1 0.0 0.1 0.1 0.1 0.2 0.2 0.3 0.4 0.6 0.7 0.5 0.6 0.5 0.5 0.5 0.5
0.4 0.7 3.6 4.1 3.6 2.3 1.0 0.2 0.1 0.3 2.0 0.5 0.2 0.5 0.2 0.1 0.7 0.9 0.0 0.0 0.1 0.1 0.1 0.1 0.1 0.1 0.1 0.1 0.1 0.1 0.1 0.2 0.2 0.3 0.5 0.4 0.3 0.9 0.7 0.7 0.6 0.6 0.6 0.7
1.5 2.2 3.7 3.5 3.2 1.3 0.3 0.0 0.0 1.2 4.1 0.4 0.3 0.4 0.2 0.4 1.0 0.6 0.1 0.0 0.0 0.1 0.1 0.0 0.1 0.2 0.1 0.2 0.2 0.4 0.4 0.5 0.7 0.3 0.1 0.2 0.4 0.8 0.8 0.8 0.6 0.8 0.6 0.7
0.9 1.3 1.4 1.5 2.5 1.6 0.2 0.2 0.8 1.0 0.3 0.3 0.3 0.2 0.3 0.2 0.2 0.2 0.1 0.1 0.1 0.1 0.1 0.2 0.3 0.5 0.4 0.5 0.4 0.6 0.7 0.3 0.2 0.3 0.3 0.5 0.8 0.8 0.6 0.5 0.6 1.0 1.1 0.9
0.7 0.9 1.0 1.0 1.0 0.6 0.3 0.4 0.2 0.1 0.2 0.2 0.1 0.1 0.1 0.2 0.3 0.2 0.2 0.2 0.1 0.2 0.1 0.1 0.2 0.3 0.2 0.2 0.1 0.6 0.7 0.5 0.3 0.4 0.5 0.5 0.5 0.5 0.6 0.4 0.7 0.8 0.7 0.7
0.6 0.3 0.6 0.9 0.4 0.4 0.2 0.2 0.1 0.1 0.1 0.1 0.1 0.1 0.1 0.1 0.1 0.1 0.2 0.2 0.2 0.2 0.2 0.2 0.3 0.3 0.4 0.4 0.4 0.6 0.5 0.4 0.5 0.6 0.7 0.7 0.5 0.5 0.5 0.6 0.5 0.6 0.6 0.7
0.4 0.4 0.7 1.1 0.4 0.3 0.2 0.1 0.1 0.1 0.1 0.1 0.1 0.1 0.1 0.1 0.1 0.1 0.1 0.1 0.1 0.1 0.1 0.2 0.3 0.4 0.5 0.4 0.6 0.5 0.5 0.5 0.6 0.6 0.7 0.5 0.5 0.4 0.4 0.5 0.3 0.5 0.5 0.7
0.5 0.6 0.9 1.0 0.3 0.5 0.4 0.1 0.1 0.1 0.1 0.1 0.1 0.1 0.1 0.1 0.1 0.1 0.1 0.1 0.1 0.2 0.1 0.2 0.3 0.3 0.4 0.5 0.5 0.6 0.3 0.3 0.7 0.7 0.5 0.5 0.5 0.4 0.5 0.5 0.7 0.2 0.4 0.4